STARLINK-2099 (47379 NORAD) Tracking and Keplerian Element Data

This shows tracking and keplerian element data for the satellite.

Feedback or suggestion? Click here.




ElementValue
Catalog47379
NameSTARLINK-2099
Epoch Orbit177
Epoch Day101.91668981
Epoch Year2021
RAAN171.9317
Inclination53.0536
Eccentricity0.0004112
Argument of Perigee2.8291
Mean Anonmoly163.2962
Mean Motion15.62811338
Decay Rate-0.00027884
L11 47379U 21005AG 21101.91668981 -.00027884 00000-0 -29888-3 0 9990
L22 47379 53.0536 171.9317 0004112 2.8291 163.2962 15.62811338 1775

Live tracking and technical data element details for STARLINK-2099 (NORAD 47379). STARLINK-2099 can be tracked NOW for your location showing map with azimuth and elevation plus other details from your city location.

Track the satellite on the map from your city or location and see movement details for azimuth, elevation, latitude, longitude, range, height, and movement on the map or in text.







IsCatalogInMostPopularTable: catalog: 47379, numindb: 15
Update: records affected: 1



GetName: 47379 STARLINK-2099

Hit Count: updated at: Tue, 13 Apr 2021 05:12:25 GMT